• In Portugal
  • List of Countries
  • For 7 days
  • Water Temperature
  • Satellite Maps
  • Weather Map
  • Weather Widgets
  • user-avatar
    Login

    Hourly Weather Baraki Barak

    Today, 26 September, Tuesday

    Time Temperature Precipitation Wind Pressure Humidity
    00:00 +18°C° 0 mm 1 mps 599 mmHg 21%
    01:00 +18°C° 0 mm 1 mps 598 mmHg 21%
    02:00 +16°C° 0 mm 2 mps 598 mmHg 22%
    03:00 +15°C° 0 mm 2 mps 598 mmHg 22%
    04:00 +15°C° 0 mm 2 mps 598 mmHg 22%
    05:00 +14°C° 0 mm 3 mps 598 mmHg 20%
    06:00 +16°C° 0 mm 2 mps 598 mmHg 19%
    07:00 +17°C° 0 mm 2 mps 599 mmHg 18%
    08:00 +18°C° 0 mm 1 mps 599 mmHg 17%
    09:00 +20°C° 0 mm 1 mps 600 mmHg 16%
    10:00 +21°C° 0 mm 1 mps 600 mmHg 14%
    11:00 +23°C° 0 mm 1 mps 601 mmHg 12%
    12:00 +24°C° 0 mm 1 mps 601 mmHg 11%
    13:00 +25°C° 0 mm 1 mps 601 mmHg 10%
    14:00 +26°C° 0 mm 1 mps 601 mmHg 9%
    15:00 +26°C° 0 mm 1 mps 601 mmHg 9%
    16:00 +26°C° 0 mm 1 mps 601 mmHg 9%
    17:00 +26°C° 0 mm 2 mps 600 mmHg 9%
    18:00 +24°C° 0 mm 1 mps 600 mmHg 11%
    19:00 +23°C° 0 mm 1 mps 600 mmHg 13%
    20:00 +21°C° 0 mm 1 mps 600 mmHg 15%
    21:00 +21°C° 0 mm 1 mps 600 mmHg 17%
    22:00 +20°C° 0 mm 1 mps 599 mmHg 19%
    23:00 +19°C° 0 mm 1 mps 599 mmHg 21%

    Tomorrow, 27 September, Wednesday

    Time Temperature Precipitation Wind Pressure Humidity
    00:00 +18°C° 0 mm 1 mps 599 mmHg 22%
    01:00 +18°C° 0 mm 1 mps 599 mmHg 23%
    02:00 +16°C° 0 mm 1 mps 598 mmHg 24%
    03:00 +16°C° 0 mm 1 mps 598 mmHg 23%
    04:00 +15°C° 0 mm 1 mps 598 mmHg 22%
    05:00 +15°C° 0 mm 1 mps 598 mmHg 22%
    06:00 +16°C° 0 mm 1 mps 599 mmHg 19%
    07:00 +18°C° 0 mm 1 mps 600 mmHg 17%
    08:00 +19°C° 0 mm 1 mps 601 mmHg 14%
    09:00 +21°C° 0 mm 1 mps 601 mmHg 13%
    10:00 +22°C° 0 mm 1 mps 602 mmHg 12%
    11:00 +23°C° 0 mm 1 mps 602 mmHg 11%
    12:00 +24°C° 0 mm 1 mps 602 mmHg 10%
    13:00 +25°C° 0 mm 1 mps 602 mmHg 10%
    14:00 +26°C° 0 mm 1 mps 602 mmHg 9%
    15:00 +26°C° 0 mm 2 mps 602 mmHg 9%
    16:00 +26°C° 0 mm 2 mps 601 mmHg 9%
    17:00 +26°C° 0 mm 2 mps 601 mmHg 9%
    18:00 +24°C° 0 mm 2 mps 601 mmHg 11%
    19:00 +23°C° 0 mm 1 mps 601 mmHg 13%
    20:00 +21°C° 0 mm 1 mps 600 mmHg 16%
    21:00 +21°C° 0 mm 1 mps 600 mmHg 17%
    22:00 +20°C° 0 mm 1 mps 600 mmHg 18%
    23:00 +19°C° 0 mm 1 mps 600 mmHg 19%

    Day after tomorrow, 28 September, Thursday

    Time Temperature Precipitation Wind Pressure Humidity
    00:00 +18°C° 0 mm 1 mps 599 mmHg 20%
    01:00 +18°C° 0 mm 1 mps 599 mmHg 20%
    02:00 +16°C° 0 mm 1 mps 598 mmHg 21%
    03:00 +16°C° 0 mm 1 mps 598 mmHg 21%
    04:00 +15°C° 0 mm 1 mps 598 mmHg 22%
    05:00 +15°C° 0 mm 1 mps 598 mmHg 22%
    06:00 +16°C° 0 mm 1 mps 598 mmHg 21%
    07:00 +18°C° 0 mm 1 mps 599 mmHg 20%
    08:00 +19°C° 0 mm 1 mps 600 mmHg 19%
    09:00 +21°C° 0 mm 1 mps 600 mmHg 17%
    10:00 +22°C° 0 mm 1 mps 601 mmHg 15%
    11:00 +24°C° 0 mm 1 mps 601 mmHg 13%
    12:00 +25°C° 0 mm 1 mps 601 mmHg 12%
    13:00 +26°C° 0 mm 1 mps 601 mmHg 10%
    14:00 +27°C° 0 mm 2 mps 601 mmHg 9%
    15:00 +27°C° 0 mm 2 mps 601 mmHg 9%
    16:00 +27°C° 0 mm 2 mps 600 mmHg 9%
    17:00 +27°C° 0 mm 3 mps 600 mmHg 9%
    18:00 +25°C° 0 mm 2 mps 600 mmHg 11%
    19:00 +24°C° 0 mm 2 mps 600 mmHg 13%
    20:00 +21°C° 0 mm 2 mps 600 mmHg 16%
    21:00 +20°C° 0 mm 2 mps 600 mmHg 16%
    22:00 +20°C° 0 mm 1 mps 599 mmHg 17%
    23:00 +19°C° 0 mm 1 mps 599 mmHg 17%

    29 September, Friday

    Time Temperature Precipitation Wind Pressure Humidity
    00:00 +19°C° 0 mm 1 mps 599 mmHg 18%
    01:00 +18°C° 0 mm 1 mps 599 mmHg 18%
    02:00 +18°C° 0 mm 1 mps 598 mmHg 19%
    03:00 +16°C° 0 mm 1 mps 598 mmHg 19%
    04:00 +16°C° 0 mm 2 mps 598 mmHg 20%
    05:00 +15°C° 0 mm 2 mps 597 mmHg 21%
    06:00 +16°C° 0 mm 2 mps 598 mmHg 20%
    07:00 +17°C° 0 mm 2 mps 599 mmHg 19%
    08:00 +18°C° 0 mm 2 mps 600 mmHg 18%
    09:00 +20°C° 0 mm 1 mps 600 mmHg 16%
    10:00 +22°C° 0 mm 1 mps 601 mmHg 15%
    11:00 +23°C° 0 mm 1 mps 601 mmHg 13%
    12:00 +24°C° 0 mm 1 mps 601 mmHg 12%
    13:00 +25°C° 0 mm 2 mps 601 mmHg 11%
    14:00 +26°C° 0 mm 2 mps 600 mmHg 10%
    15:00 +26°C° 0 mm 2 mps 600 mmHg 10%
    16:00 +26°C° 0 mm 2 mps 600 mmHg 10%
    17:00 +26°C° 0 mm 2 mps 600 mmHg 10%
    18:00 +24°C° 0 mm 2 mps 600 mmHg 12%
    19:00 +23°C° 0 mm 2 mps 600 mmHg 14%
    20:00 +20°C° 0 mm 2 mps 600 mmHg 16%
    21:00 +20°C° 0 mm 2 mps 600 mmHg 16%
    22:00 +20°C° 0 mm 1 mps 600 mmHg 17%
    23:00 +19°C° 0 mm 1 mps 600 mmHg 18%

    30 September, Saturday

    Time Temperature Precipitation Wind Pressure Humidity
    00:00 +19°C° 0 mm 1 mps 600 mmHg 18%
    01:00 +17°C° 0 mm 2 mps 599 mmHg 19%
    02:00 +16°C° 0 mm 2 mps 599 mmHg 20%
    03:00 +16°C° 0 mm 2 mps 599 mmHg 21%
    04:00 +15°C° 0 mm 2 mps 599 mmHg 22%
    05:00 +15°C° 0 mm 2 mps 599 mmHg 23%
    06:00 +16°C° 0 mm 2 mps 599 mmHg 22%
    07:00 +17°C° 0 mm 2 mps 600 mmHg 21%
    08:00 +18°C° 0 mm 2 mps 601 mmHg 20%
    09:00 +20°C° 0 mm 1 mps 601 mmHg 18%
    10:00 +22°C° 0 mm 1 mps 602 mmHg 16%
    11:00 +23°C° 0 mm 1 mps 602 mmHg 14%
    12:00 +24°C° 0 mm 1 mps 602 mmHg 13%
    13:00 +25°C° 0 mm 2 mps 602 mmHg 12%
    14:00 +26°C° 0 mm 2 mps 601 mmHg 10%
    15:00 +26°C° 0 mm 2 mps 601 mmHg 10%
    16:00 +26°C° 0 mm 3 mps 601 mmHg 10%
    17:00 +26°C° 0 mm 3 mps 601 mmHg 10%
    18:00 +25°C° 0 mm 2 mps 601 mmHg 12%
    19:00 +23°C° 0 mm 2 mps 601 mmHg 13%
    20:00 +22°C° 0 mm 1 mps 601 mmHg 15%
    21:00 +21°C° 0 mm 1 mps 600 mmHg 16%
    22:00 +20°C° 0 mm 1 mps 600 mmHg 16%
    23:00 +19°C° 0 mm 1 mps 600 mmHg 17%

    1 October, Sunday

    Time Temperature Precipitation Wind Pressure Humidity
    00:00 +19°C° 0 mm 1 mps 599 mmHg 18%
    01:00 +17°C° 0 mm 2 mps 599 mmHg 18%
    02:00 +17°C° 0 mm 2 mps 599 mmHg 19%
    03:00 +16°C° 0 mm 2 mps 598 mmHg 20%
    04:00 +16°C° 0 mm 2 mps 598 mmHg 22%
    05:00 +15°C° 0 mm 2 mps 598 mmHg 23%
    06:00 +16°C° 0 mm 2 mps 599 mmHg 22%
    07:00 +17°C° 0 mm 2 mps 600 mmHg 21%
    08:00 +18°C° 0 mm 2 mps 600 mmHg 21%
    09:00 +19°C° 0 mm 2 mps 601 mmHg 18%
    10:00 +22°C° 0 mm 1 mps 601 mmHg 16%
    11:00 +23°C° 0 mm 1 mps 601 mmHg 13%
    12:00 +24°C° 0 mm 1 mps 601 mmHg 12%
    13:00 +25°C° 0 mm 2 mps 601 mmHg 11%
    14:00 +26°C° 0 mm 2 mps 601 mmHg 9%
    15:00 +26°C° 0 mm 2 mps 601 mmHg 9%
    16:00 +26°C° 0 mm 2 mps 601 mmHg 9%
    17:00 +26°C° 0 mm 2 mps 601 mmHg 9%
    18:00 +25°C° 0 mm 2 mps 600 mmHg 11%
    19:00 +23°C° 0 mm 1 mps 600 mmHg 13%
    20:00 +21°C° 0 mm 1 mps 600 mmHg 14%
    21:00 +21°C° 0 mm 1 mps 600 mmHg 15%
    22:00 +20°C° 0 mm 1 mps 600 mmHg 15%
    23:00 +19°C° 0 mm 1 mps 599 mmHg 16%
    Show more